Flag for Germany Weather past 2 weeks in Düren, North Rhine-Westphalia, Germany

Now
64 °F

Mild.


Feels Like: 64 °F
Forecast: 74 / 92 °F
Wind: 1 mph from Southeast

Location: Noervenich

Current Time: Jul 1, 2015 at 2:28:24 AM

Latest Report: Jul 1, 2015 at 1:20 AM


Visibility: N/A

Pressure: 30.09 "Hg

Humidity: 68%

Dew point: 54 °F

Location of DürenLocation

Historic Weather in Düren — Graph

°F

Düren temperature yesterday

Maximum temperature yesterday: 84 °F (at 6:20 PM)
Minimum temperature yesterday: 55 °F (at 5:20 AM)
Average temperature yesterday: 70 °F

Past Weeks' High & Low Weather Summary

 TemperatureHumidityPressure
High84 °F (Jun 30, 6:20 PM)100% (Jun 22, 11:20 PM)30.30 "Hg (Jun 22, 11:20 PM)
Low45 °F (Jun 17, 4:20 AM)25% (Jun 30, 6:20 PM)29.68 "Hg (Jun 22, 8:20 PM)
Average62 °F69%30.09 "Hg
* Reported Jun 16 1:20 AM — Jul 1 1:20 AM, Düren, Weather by CustomWeather, © 2015

Note: Actual official high and low records may vary slightly from our data, if they occured in-between our weather recording intervals... More about our weather records

Advertising

Düren weather history for previous 24 hours

 ConditionsComfort  
Time TempWeatherWind HumidityBarometerVisibility
1:20 AM
Wed, Jul 1
64 °FMild.1 mph68%30.09 "HgN/A
12:20 AM68 °FMild.2 mph60%30.09 "HgN/A
11:20 PM
Tue, Jun 30
70 °FMild.1 mph53%30.09 "HgN/A
10:20 PM72 °FPassing clouds.No wind47%30.09 "HgN/A
9:20 PM77 °FWarm.1 mph42%30.09 "HgN/A
8:20 PM82 °FPleasantly warm.2 mph30%30.09 "HgN/A
6:20 PM84 °FPleasantly warm.3 mph25%30.09 "HgN/A
4:20 PM82 °FPleasantly warm.2 mph26%30.12 "HgN/A
3:20 PM81 °FPleasantly warm.2 mph32%30.12 "HgN/A
2:20 PM81 °FPleasantly warm.2 mph34%30.15 "HgN/A
1:20 PM79 °FPleasantly warm.2 mph39%30.15 "HgN/A
12:20 PM77 °FWarm.2 mph44%30.18 "HgN/A
11:20 AM75 °FPassing clouds.1 mph50%30.18 "HgN/A
10:48 AM73 °FPassing clouds.2 mph53%30.18 "HgN/A
10:20 AM73 °FPassing clouds.2 mph50%30.18 "HgN/A
9:52 AM72 °FPassing clouds.1 mph61%30.18 "HgN/A
9:20 AM70 °FPassing clouds.No wind64%30.18 "HgN/A
8:20 AM66 °FMild.1 mph73%30.18 "HgN/A
7:20 AM61 °FPassing clouds.1 mph83%30.18 "HgN/A
6:20 AM55 °FPassing clouds.No wind94%30.18 "HgN/A
5:20 AM55 °FPassing clouds.No wind88%30.18 "HgN/A
4:20 AM57 °FPassing clouds.2 mph88%30.18 "HgN/A
3:20 AM59 °FPassing clouds.5 mph82%30.18 "HgN/A
2:20 AM59 °FPassing clouds.3 mph82%30.18 "HgN/A
Weather by CustomWeather, © 2015

See weather overviewHow to use our weather pages